QPF
0.00 0.00 0.00 0.00 0.00 0.00 0.00 0.00 0.00 0.00 0.00 0.00 0.00 0.00 0.00 0.00 0.00 0.00 0.00 0.00 0.00 0.00 0.00 0.00 0.00 0.00 0.00 0.00 0.00 0.00 0.00 0.00 0.00 0.00 0.00 0.00 0.00 0.00 0.00 0.00 0.00 0.00 0.00 0.00 0.00
0.00 0.00 0.00 0.00 0.00 0.00 0.00 0.00 0.00 0.00 0.00 0.00 0.00 0.00 0.00 0.00 0.00 0.00 0.00 0.00 0.00 0.00 0.00 0.00 0.00 0.00 0.00 0.00 0.00 0.00 0.00 0.00 0.00 0.00 0.00 0.00 0.00 0.00 0.00 0.00 0.00 0.00 0.00 0.00 0.00
0.00 0.00 0.00 0.00 0.00 0.00 0.00 0.00 0.00 0.00 0.00 0.00 0.00 0.00 0.00 0.00 0.00 0.00 0.00 0.00 0.00 0.00 0.00 0.00 0.00 0.00 0.00 0.00 0.00 0.00 0.00 0.00 0.00 0.00 0.00 0.00 0.00 0.00 0.00 0.00 0.00 0.00 0.00 0.00 0.00
0.00 0.00 0.00 0.00 0.00 0.00 0.00 0.00 0.00 0.00 0.00 0.00 0.00 0.00 0.00 0.00 0.00 0.00 0.00 0.00 0.00 0.00 0.00 0.00 0.00 0.00 0.00 0.00 0.00 0.00 0.00 0.00 0.00 0.00 0.00 0.00 0.00 0.00 0.00 0.00 0.00 0.00 0.00 0.00 0.00
0.00 0.00 0.00 0.00 0.00 0.00 0.00 0.00 0.00 0.00 0.00 0.00 0.00 0.00 0.00 0.00 0.00 0.00 0.00 0.00 0.00 0.00 0.00 0.00 0.00 0.00 0.00 0.00 0.00 0.00 0.00 0.00 0.00 0.00 0.00 0.00 0.00 0.00 0.00 0.00 0.00 0.00 0.00 0.00 0.00
0.00 0.00 0.00 0.00 0.00 0.00 0.00 0.00 0.00 0.00 0.00 0.00 0.00 0.00 0.00 0.00 0.00 0.00 0.00 0.00 0.00 0.00 0.00 0.00 0.00 0.00 0.00 0.00 0.00 0.00 0.00 0.00 0.00 0.00 0.00 0.00 0.00 0.00 0.00 0.00 0.00 0.00 0.00 0.00 0.00
0.00 0.00 0.00 0.00 0.00 0.00 0.00 0.00 0.00 0.00 0.00 0.00 0.00 0.00 0.00 0.00 0.00 0.00 0.00 0.00 0.00 0.00 0.00 0.00 0.00 0.00 0.00 0.00 0.00 0.00 0.00 0.00 0.00 0.00 0.00 0.00 0.00 0.00 0.00 0.00 0.00 0.00 0.00 0.00 0.00
0.00 0.00 0.00 0.00 0.00 0.00 0.00 0.00 0.00 0.00 0.00 0.00 0.00 0.00 0.00 0.00 0.00 0.00 0.00 0.00 0.00 0.00 0.00 0.00 0.00 0.00 0.00 0.00 0.00 0.00 0.00 0.00 0.00 0.00 0.00 0.00 0.00 0.00 0.00 0.00 0.00 0.00 0.00 0.00 0.00
0.00 0.00 0.00 0.00 0.00 0.00 0.00 0.00 0.00 0.00 0.00 0.00 0.00 0.00 0.00 0.00 0.00 0.00 0.00 0.00 0.00 0.00 0.00 0.00 0.00 0.00 0.00 0.00 0.00 0.00 0.00 0.00 0.00 0.00 0.00 0.00 0.00 0.00 0.00 0.00 0.00 0.00 0.00 0.00 0.00
0.00 0.00 0.00 0.00 0.00 0.00 0.00 0.00 0.00 0.00 0.00 0.00 0.00 0.00 0.00 0.00 0.00 0.00 0.00 0.00 0.00 0.00 0.00 0.00 0.00 0.00 0.00 0.00 0.00 0.00 0.00 0.00 0.00 0.00 0.00 0.00 0.00 0.00 0.00 0.00 0.00 0.00 0.00 0.00 0.00
0.00 0.00 0.00 0.00 0.00 0.00 0.00 0.00 0.00 0.00 0.00 0.00 0.00 0.00 0.00 0.00 0.00 0.00 0.00 0.00 0.00 0.00 0.00 0.00 0.00 0.00 0.00 0.00 0.00 0.00 0.00 0.00 0.00 0.00 0.00 0.00 0.00 0.00 0.00 0.00 0.00 0.00 0.00 0.00 0.00
0.00 0.00 0.00 0.00 0.00 0.00 0.00 0.00 0.00 0.00 0.00 0.00 0.00 0.00 0.00 0.00 0.00 0.00 0.00 0.00 0.00 0.00 0.00 0.00 0.00 0.00 0.00 0.00 0.00 0.00 0.00 0.00 0.00 0.00 0.00 0.00 0.00 0.00 0.00 0.00 0.00 0.00 0.00 0.00 0.00
0.01 0.00 0.00 0.00 0.00 0.00 0.00 0.00 0.00 0.00 0.00 0.00 0.00 0.00 0.00 0.00 0.00 0.00 0.00 0.00 0.00 0.00 0.00 0.00 0.00 0.00 0.00 0.00 0.00 0.00 0.00 0.00 0.00 0.00 0.00 0.00 0.00 0.00 0.00 0.00 0.00 0.00 0.00 0.00 0.00
0.01 0.00 0.00 0.00 0.00 0.00 0.00 0.00 0.00 0.00 0.00 0.00 0.00 0.00 0.00 0.00 0.00 0.00 0.00 0.00 0.00 0.00 0.00 0.00 0.00 0.00 0.00 0.00 0.00 0.00 0.00 0.00 0.00 0.00 0.00 0.00 0.00 0.00 0.00 0.00 0.00 0.00 0.00 0.00 0.00
0.01 0.00 0.00 0.00 0.00 0.00 0.00 0.00 0.00 0.00 0.00 0.00 0.00 0.00 0.00 0.00 0.00 0.00 0.00 0.00 0.00 0.00 0.00 0.00 0.00 0.00 0.00 0.00 0.00 0.00 0.00 0.00 0.00 0.00 0.00 0.00 0.00 0.00 0.00 0.00 0.00 0.00 0.00 0.00 0.00
0.01 0.00 0.00 0.00 0.00 0.00 0.00 0.00 0.01 0.00 0.00 0.00 0.00 0.00 0.00 0.00 0.00 0.00 0.00 0.00 0.00 0.00 0.00 0.00 0.00 0.00 0.00 0.00 0.00 0.00 0.00 0.00 0.00 0.00 0.00 0.00 0.00 0.00 0.00 0.00 0.00 0.00 0.00 0.00 0.00
0.01 0.00 0.00 0.00 0.00 0.00 0.02 0.04 0.02 0.00 0.00 0.00 0.00 0.00 0.00 0.00 0.00 0.00 0.00 0.00 0.00 0.00 0.00 0.00 0.00 0.00 0.00 0.00 0.00 0.00 0.00 0.00 0.00 0.00 0.00 0.00 0.00 0.00 0.00 0.00 0.00 0.00 0.00 0.00 0.00
0.02 0.01 0.00 0.00 0.00 0.00 0.03 0.04 0.02 0.00 0.00 0.00 0.00 0.00 0.00 0.00 0.00 0.00 0.00 0.00 0.00 0.00 0.00 0.00 0.00 0.00 0.00 0.00 0.00 0.00 0.00 0.00 0.00 0.00 0.00 0.00 0.00 0.00 0.00 0.00 0.00 0.00 0.00 0.00 0.00
0.01 0.00 0.00 0.00 0.00 0.00 0.04 0.01 0.00 0.00 0.00 0.00 0.00 0.00 0.00 0.00 0.00 0.00 0.00 0.00 0.00 0.00 0.00 0.00 0.00 0.00 0.00 0.00 0.00 0.00 0.00 0.00 0.00 0.00 0.00 0.00 0.00 0.00 0.00 0.00 0.00 0.00 0.00 0.00 0.00
0.00 0.00 0.00 0.00 0.00 0.02 0.03 0.01 0.00 0.00 0.00 0.00 0.00 0.00 0.00 0.00 0.00 0.00 0.00 0.00 0.00 0.00 0.00 0.00 0.00 0.00 0.00 0.00 0.00 0.00 0.00 0.00 0.00 0.00 0.00 0.00 0.00 0.00 0.00 0.00 0.00 0.00 0.00 0.00 0.00
0.00 0.00 0.00 0.00 0.03 0.05 0.02 0.00 0.00 0.00 0.00 0.00 0.00 0.00 0.02 0.01 0.00 0.00 0.00 0.02 0.02 0.01 0.01 0.02 0.01 0.00 0.00 0.00 0.00 0.00 0.00 0.00 0.00 0.00 0.00 0.00 0.00 0.00 0.00 0.00 0.00 0.00 0.00 0.00 0.00
0.01 0.00 0.00 0.00 0.02 0.02 0.00 0.00 0.00 0.00 0.00 0.00 0.00 0.00 0.01 0.01 0.01 0.00 0.01 0.02 0.01 0.00 0.00 0.01 0.01 0.00 0.00 0.00 0.00 0.00 0.00 0.00 0.00 0.00 0.00 0.00 0.00 0.00 0.00 0.00 0.00 0.00 0.00 0.00 0.00
0.02 0.00 0.01 0.04 0.01 0.00 0.00 0.00 0.00 0.00 0.00 0.01 0.01 0.00 0.00 0.00 0.00 0.00 0.00 0.00 0.00 0.00 0.00 0.00 0.00 0.00 0.00 0.00 0.00 0.00 0.00 0.00 0.00 0.00 0.00 0.00 0.00 0.00 0.00 0.00 0.00 0.00 0.01 0.01 0.00
0.04 0.02 0.00 0.03 0.01 0.01 0.01 0.01 0.00 0.00 0.00 0.00 0.00 0.00 0.02 0.00 0.00 0.00 0.00 0.00 0.00 0.00 0.00 0.00 0.00 0.00 0.00 0.01 0.00 0.00 0.00 0.00 0.00 0.00 0.00 0.00 0.00 0.00 0.00 0.00 0.00 0.00 0.01 0.00 0.00
0.03 0.01 0.00 0.01 0.00 0.00 0.00 0.01 0.03 0.03 0.01 0.00 0.01 0.00 0.00 0.02 0.00 0.00 0.00 0.00 0.00 0.00 0.00 0.00 0.00 0.00 0.00 0.00 0.00 0.00 0.00 0.00 0.00 0.00 0.00 0.00 0.00 0.00 0.00 0.00 0.00 0.00 0.00 0.00 0.00
0.01 0.00 0.00 0.00 0.00 0.00 0.01 0.00 0.00 0.00 0.03 0.01 0.01 0.01 0.00 0.01 0.02 0.01 0.00 0.00 0.01 0.00 0.00 0.00 0.00 0.00 0.00 0.00 0.00 0.00 0.00 0.00 0.00 0.00 0.00 0.00 0.00 0.00 0.00 0.00 0.00 0.00 0.00 0.00 0.00
0.00 0.00 0.00 0.00 0.00 0.00 0.01 0.02 0.01 0.00 0.00 0.00 0.00 0.02 0.02 0.01 0.02 0.00 0.00 0.00 0.00 0.00 0.00 0.00 0.00 0.00 0.00 0.00 0.00 0.00 0.00 0.00 0.00 0.00 0.00 0.00 0.00 0.00 0.00 0.00 0.00 0.00 0.00 0.00 0.00
MSLP
1020.29 1020.15 1019.89 1019.76 1019.44 1019.20 1018.79 1018.49 1018.29 1017.92 1017.39 1016.90 1016.47 1016.18 1015.61 1014.79 1013.77 1012.66 1011.09 1008.95 1008.97 1008.66 1008.86 1008.79 1009.11 1009.14 1009.18 1009.20 1008.79 1008.66 1009.45 1009.02 1007.68 1007.13 1005.09 1004.03 1003.13 1002.43 1002.16 1002.56 1002.70 1002.96 1003.36 1003.96 1005.20
1020.23 1019.89 1019.62 1019.51 1019.42 1019.07 1018.63 1018.28 1018.05 1017.68 1017.22 1016.80 1016.47 1015.88 1015.50 1014.72 1013.47 1011.03 1008.08 1007.87 1008.07 1008.37 1008.76 1008.63 1008.70 1008.95 1009.20 1008.55 1008.48 1008.36 1008.31 1007.13 1006.57 1005.85 1004.84 1003.99 1003.66 1002.77 1002.54 1002.60 1002.95 1003.11 1003.06 1004.02 1004.86
1019.92 1019.74 1019.52 1019.26 1018.96 1018.81 1018.57 1018.25 1017.92 1017.37 1017.07 1016.69 1016.30 1015.81 1015.21 1014.74 1012.90 1008.48 1007.42 1007.60 1007.84 1008.24 1008.36 1008.32 1008.33 1008.57 1008.64 1008.33 1007.96 1007.60 1007.15 1006.30 1005.68 1005.01 1004.45 1004.15 1003.49 1002.80 1002.57 1002.93 1002.73 1003.01 1003.20 1004.03 1004.52
1019.53 1019.39 1019.31 1019.11 1018.68 1018.43 1018.25 1018.10 1017.78 1017.22 1016.82 1016.63 1016.26 1015.70 1015.06 1014.33 1011.62 1007.53 1007.38 1007.63 1007.73 1008.06 1008.27 1007.95 1008.09 1008.26 1007.95 1007.61 1007.15 1007.05 1006.25 1005.64 1004.79 1004.37 1003.90 1003.59 1003.27 1003.06 1002.71 1002.38 1002.24 1002.48 1002.58 1003.42 1004.02
1019.29 1019.17 1018.95 1018.74 1018.66 1018.27 1017.87 1017.68 1017.51 1016.99 1016.62 1016.35 1016.16 1015.99 1015.13 1013.83 1009.91 1007.57 1007.41 1007.51 1007.66 1007.74 1007.53 1007.56 1007.44 1007.52 1007.20 1006.77 1006.70 1006.08 1005.58 1004.99 1004.17 1003.68 1003.27 1002.97 1002.90 1002.66 1002.50 1001.88 1001.63 1001.77 1002.16 1002.60 1003.39
1018.98 1018.85 1018.72 1018.47 1018.25 1018.06 1017.91 1017.23 1016.95 1016.67 1016.42 1015.99 1015.97 1015.85 1015.38 1013.14 1007.84 1007.11 1007.54 1007.55 1006.94 1007.14 1006.98 1006.88 1006.68 1006.46 1006.37 1006.11 1006.01 1005.53 1004.97 1004.28 1003.72 1003.23 1002.90 1002.89 1002.50 1002.49 1001.97 1001.65 1001.52 1001.41 1001.72 1001.84 1002.12
1018.82 1018.38 1018.28 1018.31 1017.88 1017.64 1017.65 1017.16 1016.47 1016.08 1015.91 1015.63 1015.62 1015.57 1014.73 1010.09 1007.46 1006.82 1007.41 1006.97 1006.78 1006.60 1006.58 1006.26 1006.09 1006.18 1005.93 1005.84 1005.25 1005.16 1004.87 1004.12 1003.49 1003.17 1003.11 1002.81 1002.16 1002.21 1001.48 1001.34 1001.14 1000.83 1000.90 1001.06 1001.27
1018.60 1018.12 1017.84 1017.81 1017.66 1017.23 1017.07 1016.61 1015.81 1015.19 1015.12 1015.16 1015.03 1015.31 1012.85 1008.47 1007.79 1007.24 1006.67 1006.48 1006.23 1006.12 1006.39 1005.94 1005.59 1005.71 1005.82 1005.62 1005.41 1005.59 1005.18 1004.26 1003.59 1003.22 1002.94 1003.25 1001.10 1001.71 1001.02 1000.80 1000.54 1000.17 1000.21 1000.51 1000.64
1018.31 1018.01 1017.72 1017.49 1017.28 1017.14 1016.47 1015.88 1014.49 1014.17 1014.33 1014.43 1014.77 1014.53 1010.73 1007.13 1007.33 1006.13 1006.24 1006.28 1006.06 1006.03 1006.03 1005.89 1005.78 1005.80 1006.03 1006.26 1006.58 1006.26 1005.71 1004.72 1004.01 1003.45 1003.04 1002.76 1000.95 1001.11 1000.35 1000.02 999.85 999.78 999.11 999.71 1000.30
1017.94 1017.86 1017.61 1017.24 1017.11 1016.86 1016.16 1014.78 1012.58 1013.05 1013.12 1013.13 1013.51 1013.74 1009.43 1006.34 1005.26 1005.23 1004.92 1005.53 1005.83 1005.93 1006.25 1006.29 1006.46 1006.32 1006.54 1006.97 1006.42 1006.60 1005.86 1004.98 1004.13 1003.66 1002.78 1002.36 1001.17 1000.59 1000.00 999.39 998.99 999.21 999.05 999.41 999.89
1017.71 1017.52 1017.42 1017.10 1016.96 1016.52 1016.01 1014.87 1012.47 1012.61 1012.25 1011.28 1010.64 1009.43 1007.20 1005.48 1004.77 1004.96 1004.76 1004.97 1005.42 1005.79 1006.11 1006.14 1006.58 1006.35 1006.70 1006.49 1006.42 1006.22 1005.65 1004.82 1003.94 1003.50 1003.12 1002.55 1001.84 1000.99 999.75 998.38 998.59 998.80 998.85 998.93 999.12
1017.30 1017.28 1017.16 1017.09 1016.91 1016.15 1016.09 1015.24 1013.41 1013.18 1011.65 1010.30 1009.14 1008.04 1007.03 1006.57 1006.28 1004.79 1005.30 1005.65 1005.43 1005.86 1006.04 1006.19 1005.08 1005.92 1006.32 1006.29 1006.18 1005.84 1005.22 1004.46 1003.85 1003.49 1003.27 1002.78 1001.90 1001.42 1000.24 998.90 998.07 998.00 998.47 998.52 998.61
1017.10 1016.94 1017.32 1017.33 1016.32 1015.60 1014.97 1014.29 1013.05 1012.70 1012.31 1008.14 1006.88 1005.83 1005.75 1006.35 1005.33 1004.07 1005.69 1005.26 1005.66 1005.73 1005.63 1004.99 1004.16 1004.64 1005.28 1005.28 1005.17 1004.65 1004.52 1004.27 1003.90 1003.72 1003.80 1004.26 1002.47 1001.64 999.88 998.33 997.29 997.08 997.06 997.49 997.87
1017.15 1016.99 1017.22 1016.75 1016.35 1015.19 1014.34 1013.16 1012.98 1012.73 1012.13 1007.17 1004.84 1003.25 1003.76 1004.51 1004.16 1003.32 1004.11 1005.36 1005.00 1005.12 1005.34 1004.20 1003.92 1003.72 1003.79 1004.06 1004.04 1003.68 1003.57 1003.76 1003.95 1004.29 1004.71 1005.30 1003.36 1002.18 1000.78 998.68 996.78 996.38 996.34 996.59 997.05
1016.93 1016.69 1016.70 1016.70 1016.43 1015.44 1014.30 1013.25 1012.90 1013.03 1011.08 1004.22 1003.03 1002.22 1002.49 1003.41 1002.72 1002.48 1002.90 1004.27 1004.09 1004.67 1004.84 1002.96 1003.01 1003.08 1002.80 1002.62 1002.67 1002.61 1002.85 1003.34 1003.84 1004.57 1004.99 1005.56 1005.46 1001.65 1000.65 998.07 996.33 995.57 995.12 995.26 995.77
1016.54 1016.50 1016.55 1016.42 1016.18 1015.28 1014.49 1014.08 1013.42 1013.06 1008.92 1004.41 1002.99 1002.79 1003.35 1003.36 1003.04 1002.76 1002.97 1003.46 1004.04 1004.60 1004.24 1003.35 1003.01 1002.81 1002.39 1002.06 1002.04 1001.82 1002.63 1003.27 1003.97 1005.05 1005.29 1005.43 1005.09 1001.30 999.67 997.49 995.56 994.41 994.11 994.41 994.93
1016.34 1016.31 1016.47 1016.23 1015.62 1015.02 1014.98 1014.66 1014.21 1011.51 1006.70 1004.28 1003.88 1003.11 1003.22 1003.36 1003.34 1003.14 1003.52 1003.97 1004.18 1004.58 1004.13 1003.53 1002.85 1002.40 1002.34 1002.35 1001.96 1001.92 1002.89 1003.83 1005.02 1005.42 1004.57 1004.44 1003.79 1001.14 998.61 996.53 995.28 994.07 993.56 993.48 994.06
1016.23 1016.26 1016.15 1015.77 1015.29 1015.25 1015.53 1014.90 1013.08 1009.07 1007.24 1005.39 1005.41 1003.61 1003.03 1002.76 1002.93 1002.82 1003.33 1003.88 1004.17 1004.03 1003.64 1003.28 1002.59 1001.99 1001.29 1001.43 1001.72 1001.83 1002.58 1003.42 1004.35 1004.89 1004.72 1003.99 1002.43 999.60 998.17 996.79 994.33 993.55 992.51 992.70 993.91
1016.16 1016.09 1015.91 1014.93 1014.89 1015.02 1015.60 1014.23 1011.65 1009.92 1008.35 1007.67 1006.08 1004.61 1003.36 1002.48 1002.50 1002.55 1002.86 1003.21 1003.27 1003.40 1003.39 1002.22 1001.47 1000.57 1000.24 1000.34 1000.92 1001.45 1001.75 1002.95 1003.71 1003.97 1004.02 1003.22 1001.51 999.00 996.83 995.22 992.97 992.94 992.52 993.05 993.77
1016.35 1016.03 1014.67 1013.93 1014.20 1015.12 1015.32 1013.47 1011.74 1010.37 1009.59 1009.23 1008.48 1006.88 1006.00 1004.90 1004.12 1002.80 1003.01 1002.85 1002.69 1002.43 1002.49 1002.09 1001.64 1000.60 999.63 999.70 1000.48 1000.70 1001.39 1002.55 1003.40 1004.02 1003.66 1002.30 1000.81 999.93 997.60 996.53 995.37 993.51 993.22 993.41 993.61
1016.48 1015.79 1013.22 1012.78 1013.89 1014.99 1014.43 1013.43 1012.03 1011.12 1010.29 1010.20 1009.90 1009.58 1008.51 1007.70 1006.49 1004.84 1003.85 1003.69 1003.13 1002.87 1002.71 1002.62 1002.39 1001.38 1000.63 1000.22 1000.29 1000.92 1001.39 1002.18 1002.77 1003.37 1003.27 1001.99 1000.15 997.91 997.76 996.85 996.51 995.65 993.95 993.91 994.18
1016.28 1015.66 1012.79 1012.58 1014.26 1014.17 1013.86 1012.75 1011.93 1011.18 1010.53 1011.01 1010.70 1010.03 1009.41 1008.55 1007.97 1007.13 1006.43 1004.85 1004.16 1003.63 1003.55 1003.46 1003.08 1002.34 1001.49 1000.77 1000.69 1000.63 1000.77 1001.69 1002.38 1002.84 1002.66 1001.67 999.17 998.66 998.05 998.45 997.64 997.08 996.15 993.92 993.86
1016.23 1015.10 1013.12 1013.34 1014.17 1013.92 1013.10 1012.22 1011.47 1010.79 1010.35 1009.90 1010.09 1010.09 1009.59 1009.73 1009.37 1008.30 1007.52 1005.18 1003.96 1004.42 1004.60 1004.09 1003.75 1003.34 1002.16 1001.50 1001.92 1002.61 1001.42 1001.48 1001.71 1002.11 1001.97 1001.17 999.17 998.05 998.05 997.77 998.21 998.52 997.92 996.03 994.59
1016.58 1015.29 1013.75 1013.82 1013.97 1013.65 1013.03 1012.09 1011.01 1010.17 1009.67 1009.54 1009.66 1009.85 1009.86 1009.42 1008.98 1008.02 1007.70 1006.05 1004.90 1004.83 1004.57 1004.55 1004.75 1004.72 1004.39 1003.97 1004.02 1003.18 1002.43 1002.35 1002.56 1002.13 1001.61 1000.33 999.33 998.61 998.35 998.56 998.50 998.21 997.55 996.54 995.58
1016.29 1015.33 1013.95 1013.53 1013.51 1013.27 1012.84 1011.95 1010.85 1010.07 1009.33 1009.10 1009.30 1009.67 1010.00 1009.77 1008.86 1007.49 1006.35 1006.14 1005.29 1005.28 1005.14 1005.35 1005.52 1005.43 1004.98 1004.58 1003.80 1003.16 1002.43 1001.91 1002.16 1002.51 1002.19 1000.68 1000.14 998.84 998.89 998.87 998.76 997.85 997.21 996.49 995.88
1015.80 1015.11 1013.92 1013.51 1013.18 1013.47 1012.64 1011.60 1010.77 1009.92 1009.72 1009.09 1008.95 1008.63 1009.29 1009.55 1008.80 1007.84 1007.24 1006.69 1005.94 1005.58 1005.80 1006.19 1006.22 1005.98 1005.59 1005.07 1004.26 1003.28 1002.28 1001.74 1001.48 1001.41 1001.10 1000.92 1000.34 999.49 998.87 998.76 998.66 998.39 998.37 996.59 995.66
1015.03 1014.65 1014.50 1013.60 1013.12 1012.92 1012.28 1011.64 1010.40 1009.75 1009.15 1008.76 1008.94 1009.14 1008.61 1008.89 1008.93 1007.84 1007.54 1007.30 1006.86 1006.68 1006.89 1007.07 1007.04 1007.09 1006.60 1005.72 1004.93 1003.71 1002.67 1002.08 1001.61 1001.11 1001.42 1001.89 1001.91 1000.54 999.98 1000.02 1000.02 999.28 998.29 997.53 996.82
Thickness
5596 5597 5600 5601 5604 5605 5609 5613 5615 5619 5624 5629 5633 5637 5643 5651 5661 5672 5683 5700 5703 5707 5707 5709 5703 5701 5701 5696 5702 5704 5664 5666 5686 5686 5711 5731 5731 5744 5749 5737 5746 5742 5739 5738 5732
5586 5589 5592 5593 5594 5598 5602 5604 5608 5612 5616 5620 5624 5630 5635 5644 5656 5675 5701 5703 5702 5701 5696 5696 5692 5691 5683 5691 5690 5684 5663 5686 5704 5706 5711 5719 5718 5730 5728 5728 5727 5732 5741 5734 5729
5575 5577 5581 5584 5587 5589 5591 5595 5598 5604 5608 5611 5615 5621 5627 5634 5653 5687 5699 5697 5696 5693 5693 5692 5691 5685 5676 5682 5686 5683 5674 5698 5705 5713 5715 5707 5713 5728 5722 5714 5723 5719 5728 5724 5722
5564 5566 5568 5571 5576 5579 5581 5584 5587 5594 5597 5600 5605 5612 5618 5628 5647 5684 5690 5688 5687 5685 5683 5683 5679 5669 5671 5670 5686 5670 5689 5698 5708 5712 5711 5708 5713 5712 5720 5723 5735 5732 5736 5724 5718
5551 5553 5555 5559 5561 5565 5570 5574 5576 5582 5587 5590 5595 5597 5607 5621 5648 5674 5678 5679 5679 5678 5677 5674 5670 5666 5664 5675 5675 5675 5687 5695 5708 5710 5710 5715 5708 5710 5712 5734 5738 5737 5736 5730 5717
5538 5540 5542 5545 5548 5552 5555 5561 5566 5571 5575 5580 5583 5588 5596 5606 5657 5666 5667 5668 5671 5670 5670 5671 5670 5674 5669 5671 5669 5682 5685 5692 5699 5703 5712 5703 5706 5706 5721 5730 5728 5733 5729 5729 5727
5523 5528 5531 5532 5538 5540 5540 5547 5555 5560 5563 5569 5572 5578 5588 5616 5651 5658 5658 5660 5662 5664 5661 5668 5670 5663 5668 5661 5680 5678 5667 5682 5690 5698 5692 5701 5688 5692 5720 5723 5719 5727 5730 5729 5729
5508 5516 5519 5522 5523 5529 5530 5537 5545 5554 5557 5558 5564 5567 5589 5626 5638 5644 5651 5653 5657 5659 5655 5662 5666 5662 5660 5666 5664 5653 5657 5655 5682 5688 5692 5684 5680 5698 5717 5718 5716 5724 5729 5729 5727
5497 5501 5506 5511 5514 5515 5523 5528 5541 5550 5550 5552 5553 5559 5593 5628 5626 5641 5642 5640 5645 5647 5648 5652 5651 5648 5648 5637 5626 5634 5629 5644 5659 5680 5678 5674 5684 5697 5714 5718 5716 5720 5730 5726 5723
5487 5489 5493 5499 5501 5503 5511 5524 5543 5546 5549 5552 5552 5553 5593 5616 5633 5635 5641 5636 5631 5631 5627 5627 5624 5621 5621 5613 5611 5615 5625 5633 5641 5662 5670 5666 5680 5692 5702 5710 5712 5715 5721 5718 5718
5474 5478 5482 5487 5490 5493 5500 5510 5534 5538 5546 5556 5566 5578 5601 5615 5627 5624 5627 5626 5622 5617 5605 5614 5601 5603 5607 5614 5622 5623 5624 5629 5643 5656 5652 5655 5662 5676 5693 5704 5706 5705 5714 5717 5720
5463 5466 5470 5473 5476 5483 5488 5492 5512 5521 5528 5553 5565 5578 5587 5588 5595 5610 5610 5602 5605 5595 5601 5599 5609 5612 5612 5612 5611 5614 5615 5621 5636 5645 5645 5647 5649 5661 5675 5689 5705 5709 5706 5714 5719
5447 5454 5454 5455 5466 5475 5483 5490 5504 5512 5505 5563 5570 5584 5582 5578 5588 5603 5592 5596 5590 5589 5593 5598 5618 5618 5608 5606 5605 5612 5610 5616 5620 5632 5630 5617 5633 5646 5673 5691 5706 5715 5719 5716 5719
5428 5435 5440 5448 5455 5465 5476 5489 5496 5500 5484 5555 5575 5591 5590 5585 5587 5606 5598 5585 5587 5583 5586 5600 5612 5613 5609 5605 5608 5601 5620 5619 5617 5603 5589 5611 5591 5626 5647 5666 5702 5709 5714 5718 5717
5413 5423 5430 5434 5440 5450 5466 5476 5485 5486 5476 5571 5578 5593 5593 5581 5596 5600 5601 5584 5582 5580 5579 5603 5603 5599 5602 5609 5614 5609 5618 5615 5606 5595 5590 5594 5576 5617 5642 5663 5692 5706 5716 5724 5722
5402 5411 5417 5424 5429 5440 5450 5457 5468 5468 5486 5548 5566 5562 5562 5569 5577 5588 5586 5586 5584 5572 5578 5590 5600 5598 5602 5610 5611 5619 5611 5606 5598 5590 5567 5587 5581 5599 5637 5664 5694 5710 5718 5720 5721
5390 5400 5407 5414 5416 5430 5435 5442 5443 5467 5537 5550 5549 5553 5554 5556 5560 5568 5566 5559 5554 5549 5553 5574 5583 5593 5596 5586 5600 5604 5594 5565 5557 5560 5568 5601 5588 5601 5647 5676 5689 5703 5715 5719 5725
5380 5389 5397 5405 5413 5416 5418 5428 5445 5510 5515 5531 5522 5542 5546 5558 5558 5563 5557 5549 5557 5559 5559 5552 5559 5581 5600 5588 5586 5592 5587 5560 5557 5557 5568 5591 5589 5624 5648 5662 5695 5708 5717 5721 5714
5373 5381 5391 5401 5406 5409 5406 5421 5456 5484 5496 5498 5511 5526 5542 5559 5558 5556 5558 5557 5562 5561 5554 5565 5572 5595 5596 5596 5594 5585 5576 5591 5576 5583 5569 5585 5603 5636 5656 5672 5697 5704 5713 5713 5709
5364 5374 5388 5399 5403 5398 5398 5423 5447 5466 5468 5473 5476 5504 5503 5520 5528 5550 5552 5560 5564 5569 5571 5571 5561 5588 5598 5598 5591 5588 5596 5570 5568 5552 5555 5585 5602 5596 5633 5647 5662 5694 5697 5702 5707
5357 5365 5391 5402 5397 5389 5398 5405 5428 5442 5450 5454 5456 5453 5479 5479 5498 5525 5542 5540 5545 5556 5560 5555 5554 5568 5585 5581 5580 5577 5573 5578 5578 5568 5558 5568 5593 5633 5631 5644 5648 5663 5689 5694 5698
5352 5356 5392 5399 5379 5385 5395 5416 5425 5428 5438 5432 5437 5454 5459 5473 5483 5494 5495 5517 5528 5538 5538 5541 5548 5549 5565 5583 5583 5585 5581 5579 5560 5566 5574 5577 5597 5630 5632 5629 5637 5643 5649 5693 5702
5348 5360 5386 5387 5366 5385 5405 5417 5422 5424 5430 5440 5438 5445 5462 5452 5461 5469 5490 5517 5530 5528 5522 5534 5535 5539 5556 5574 5565 5554 5579 5584 5580 5578 5570 5565 5591 5630 5632 5630 5633 5631 5633 5658 5686
5343 5345 5372 5376 5378 5392 5403 5406 5415 5430 5432 5440 5444 5447 5449 5460 5472 5480 5480 5499 5517 5520 5525 5531 5528 5528 5527 5534 5533 5543 5558 5568 5563 5557 5570 5582 5598 5616 5624 5619 5618 5625 5635 5650 5663
5342 5355 5376 5368 5378 5392 5398 5406 5413 5419 5433 5438 5436 5439 5440 5444 5465 5480 5493 5492 5508 5514 5520 5521 5518 5525 5534 5539 5546 5550 5557 5565 5561 5560 5556 5579 5587 5612 5613 5615 5621 5634 5648 5651 5659
5342 5350 5372 5381 5390 5380 5387 5400 5412 5423 5420 5432 5439 5451 5445 5440 5455 5463 5477 5483 5494 5508 5510 5514 5513 5520 5526 5535 5541 5546 5559 5566 5571 5575 5578 5583 5585 5603 5612 5617 5622 5626 5628 5645 5656
5348 5355 5360 5373 5381 5384 5388 5393 5415 5422 5431 5440 5436 5436 5446 5443 5447 5461 5466 5474 5487 5491 5494 5500 5501 5497 5511 5525 5527 5529 5548 5559 5568 5579 5577 5567 5570 5588 5598 5603 5605 5611 5622 5633 5639